Mexico City Airport, Mexico

5:34 AM CDT on October 01, 2016 (GMT -0500)
Mexico City Airport

Weather History for 76679 - February, 2014

Change the Weather History Date:

Monday, February 3, 2014

  Actual Average Record
Temperature  
Mean Temperature 62 °F -  
Max Temperature 75 °F - - ()
Min Temperature 48 °F - - ()
Degree Days  
Heating Degree Days 4    
Growing Degree Days 12 (Base 50)    
Moisture  
Dew Point 37 °F    
Average Humidity 43    
Maximum Humidity 71    
Minimum Humidity 20    
Precipitation  
Precipitation 0.00 in - - ()
Sea Level Pressure  
Sea Level Pressure 30.13 in    
Wind  
Wind Speed 5 mph ()    
Max Wind Speed 14 mph    
Max Gust Speed -    
Visibility 7.7 miles    
Events      
T = Trace of Precipitation, MM = Missing Value Source: Averaged Metar Reports

Daily Weather History Graph

Daily Weather History Graph

Search for Another Location

Airport or City:

Trip Planner

Search our weather history database for the weather conditions in past years. The results will help you decide how hot, cold, wet, or windy it might be!

Date:

Astronomy

Feb. 03, 2014 Rise Set
Actual Time 7:10 AM CST 6:30 PM CST
Civil Twilight 6:47 AM CST 6:53 PM CST
Nautical Twilight 6:21 AM CST 7:19 PM CST
Astronomical Twilight 5:55 AM CST 7:45 PM CST
Moon 9:55 AM CST (2/3) 10:36 PM CST (2/3)
Length of Visible Light 12h 05m
Length of Day
11h 19m
Waxing Crescent, 20% of the Moon is Illuminated
Feb 3
Waxing Crescent
Feb 6
First Quarter
Feb 14
Full
Feb 22
Last Quarter
Mar 1
New

Hourly Weather History & Observations

Time (CST) Temp. Dew Point Humidity Pressure Visibility Wind Dir Wind Speed Gust Speed Precip Events Conditions
12:43 AM 59.0 °F 35.6 °F 42% 30.24 in 8.0 mi ENE 5.8 mph - N/A   Clear
1:43 AM 57.2 °F 37.4 °F 48% 30.24 in 8.0 mi East 2.3 mph - N/A   Clear
2:46 AM 55.4 °F 32.0 °F 41% 29.59 in 10.0 mi East 2.3 mph - N/A   Clear
3:44 AM 53.6 °F 33.8 °F 47% 30.22 in 10.0 mi Calm Calm - N/A   Clear
4:42 AM 50.0 °F 32.0 °F 50% 30.23 in 10.0 mi ENE 3.5 mph - N/A   Clear
5:41 AM 48.2 °F 33.8 °F 58% 29.81 in 10.0 mi SE 5.8 mph - N/A   Clear
6:20 AM 48.2 °F 33.8 °F 58% 30.24 in 8.0 mi ESE 4.6 mph - N/A   Clear
6:44 AM 48.2 °F 39.2 °F 71% 30.27 in 8.0 mi East 2.3 mph - N/A   Clear
7:21 AM 50.0 °F 41.0 °F 71% 30.28 in 7.0 mi ESE 3.5 mph - N/A   Clear
7:43 AM 50.0 °F 41.0 °F 71% 30.28 in 7.0 mi ESE 6.9 mph - N/A   Clear
8:43 AM 50.0 °F 41.0 °F 71% 29.94 in 5.0 mi East 5.8 mph - N/A   Clear
9:19 AM 53.6 °F 41.0 °F 62% 30.31 in 4.0 mi East 3.5 mph - N/A   Clear
9:21 AM 53.6 °F 41.0 °F 62% 30.31 in 4.0 mi ENE 5.8 mph - N/A   Clear
9:41 AM 57.2 °F 39.2 °F 51% 30.31 in 4.0 mi Calm Calm - N/A   Clear
9:43 AM 57.2 °F 39.2 °F 51% 30.31 in 4.0 mi Calm Calm - N/A   Clear
10:29 AM 60.8 °F 41.0 °F 48% 30.31 in 4.0 mi ESE 4.6 mph - N/A   Clear
10:42 AM 60.8 °F 41.0 °F 48% 30.30 in 5.0 mi East 5.8 mph - N/A   Clear
11:31 AM 64.4 °F 39.2 °F 40% 30.28 in 5.0 mi SE 5.8 mph - N/A   Clear
11:45 AM 66.2 °F 39.2 °F 37% 29.81 in 5.0 mi South 2.3 mph - N/A   Clear
12:22 PM 69.8 °F 39.2 °F 33% 30.24 in 5.0 mi SE 5.8 mph - N/A   Partly Cloudy
12:43 PM 71.6 °F 39.2 °F 31% 30.23 in 5.0 mi SSE 4.6 mph - N/A   Partly Cloudy
1:42 PM 75.2 °F 35.6 °F 24% 30.19 in 7.0 mi East 10.4 mph - N/A   Partly Cloudy
1:43 PM 75.2 °F 35.6 °F 24% 30.19 in 7.0 mi ESE 5.8 mph - N/A   Partly Cloudy
2:46 PM 75.2 °F 35.6 °F 24% 29.64 in 7.0 mi ESE 11.5 mph - N/A   Partly Cloudy
3:49 PM 75.2 °F 35.6 °F 24% 30.13 in 8.0 mi SSE 11.5 mph - N/A   Partly Cloudy
4:42 PM 75.2 °F 32.0 °F 21% 30.13 in 8.0 mi SE 13.8 mph - N/A   Partly Cloudy
5:45 PM 73.4 °F 30.2 °F 20% 29.69 in 10.0 mi SSW 6.9 mph - N/A   Clear
6:29 PM 69.8 °F 33.8 °F 27% 30.15 in 10.0 mi SSW 12.7 mph - N/A   Clear
6:43 PM 68.0 °F 33.8 °F 28% 30.16 in 10.0 mi South 9.2 mph - N/A   Clear
7:42 PM 66.2 °F 37.4 °F 35% 30.19 in 10.0 mi SSE 12.7 mph - N/A   Clear
8:44 PM 64.4 °F 37.4 °F 37% 29.81 in 12.0 mi South 10.4 mph - N/A   Clear
9:48 PM 62.6 °F 35.6 °F 37% 30.23 in 12.0 mi SE 9.2 mph - N/A   Clear
10:44 PM 62.6 °F 37.4 °F 39% 30.24 in 12.0 mi ESE 5.8 mph - N/A   Clear
11:49 PM 60.8 °F 37.4 °F 42% 29.77 in 12.0 mi South 4.6 mph - N/A   Clear